Location: Oberwangen
(47.4286°N, 8.9679°E)
Time: 09:18:08
(UTC+00:00)

Cosmos 2278 Rocket - Pass Details

Date: 20 June 2021
Orbit: 840 x 847 km, 71.0° (Epoch: 04 August)

Event Time Altitude Azimuth Distance (km) Brightness Sun altitude
Rises 21:08:37 0° 335° (NNW) 3,411 7.4 -12.7°
Reaches altitude 10° 21:11:09 10° 340° (NNW) 2,474 6.0 -12.9°
Maximum altitude 21:16:42 54° 57° (ENE) 1,028 2.7 -13.4°
Enters shadow 21:20:52 18° 130° (SE) 1,978 3.6 -13.7°
